QPF
0.07 0.08 0.09 0.08 0.07 0.07 0.09 0.09 0.09 0.09 0.10 0.09 0.07 0.08 0.09 0.07 0.06 0.06 0.05 0.04 0.04 0.04 0.05 0.08 0.09 0.09 0.09 0.09 0.09 0.11 0.11 0.09 0.09 0.09 0.07 0.06 0.06 0.06 0.06 0.06 0.06 0.07 0.06
0.07 0.09 0.11 0.10 0.07 0.06 0.07 0.08 0.08 0.09 0.10 0.10 0.09 0.09 0.08 0.08 0.06 0.06 0.05 0.04 0.04 0.04 0.05 0.06 0.08 0.09 0.10 0.10 0.10 0.10 0.11 0.10 0.09 0.09 0.08 0.07 0.06 0.06 0.05 0.06 0.06 0.06 0.06
0.06 0.08 0.08 0.07 0.07 0.09 0.10 0.09 0.09 0.10 0.10 0.11 0.11 0.09 0.08 0.08 0.07 0.06 0.05 0.04 0.03 0.03 0.03 0.04 0.06 0.08 0.10 0.11 0.11 0.11 0.11 0.11 0.11 0.10 0.09 0.09 0.07 0.06 0.06 0.05 0.05 0.06 0.06
0.05 0.06 0.05 0.04 0.04 0.06 0.08 0.09 0.10 0.10 0.10 0.10 0.08 0.07 0.08 0.07 0.06 0.06 0.05 0.03 0.03 0.03 0.02 0.02 0.03 0.05 0.07 0.09 0.10 0.10 0.10 0.10 0.11 0.11 0.12 0.12 0.10 0.08 0.07 0.06 0.06 0.05 0.05
0.05 0.06 0.04 0.03 0.04 0.05 0.06 0.06 0.08 0.10 0.10 0.08 0.06 0.06 0.06 0.06 0.06 0.06 0.05 0.05 0.04 0.03 0.03 0.03 0.03 0.04 0.05 0.07 0.09 0.10 0.10 0.11 0.11 0.12 0.14 0.13 0.12 0.11 0.09 0.08 0.08 0.07 0.07
0.04 0.05 0.05 0.04 0.05 0.05 0.06 0.06 0.06 0.07 0.08 0.08 0.06 0.05 0.04 0.04 0.05 0.06 0.06 0.06 0.05 0.03 0.04 0.03 0.05 0.04 0.04 0.06 0.07 0.08 0.10 0.11 0.12 0.13 0.15 0.16 0.14 0.12 0.11 0.09 0.09 0.10 0.09
0.05 0.05 0.05 0.05 0.04 0.04 0.04 0.05 0.05 0.06 0.06 0.08 0.07 0.05 0.04 0.03 0.04 0.04 0.05 0.05 0.04 0.03 0.03 0.03 0.04 0.06 0.05 0.04 0.05 0.06 0.07 0.07 0.10 0.12 0.14 0.16 0.18 0.15 0.12 0.10 0.09 0.09 0.10
0.05 0.04 0.05 0.04 0.04 0.04 0.04 0.05 0.05 0.05 0.05 0.07 0.07 0.06 0.05 0.04 0.04 0.03 0.04 0.04 0.04 0.03 0.03 0.03 0.03 0.04 0.05 0.06 0.04 0.03 0.05 0.05 0.07 0.09 0.11 0.13 0.16 0.16 0.15 0.14 0.13 0.12 0.12
0.04 0.04 0.04 0.04 0.04 0.05 0.05 0.05 0.06 0.06 0.07 0.07 0.08 0.09 0.07 0.05 0.05 0.04 0.04 0.03 0.04 0.04 0.04 0.03 0.03 0.04 0.04 0.06 0.04 0.03 0.03 0.04 0.06 0.08 0.10 0.13 0.14 0.15 0.15 0.13 0.13 0.13 0.13
0.03 0.04 0.05 0.05 0.05 0.06 0.07 0.07 0.08 0.09 0.11 0.10 0.11 0.12 0.13 0.12 0.11 0.07 0.06 0.05 0.04 0.04 0.04 0.04 0.03 0.03 0.05 0.07 0.06 0.03 0.03 0.04 0.06 0.07 0.08 0.09 0.10 0.12 0.14 0.12 0.10 0.10 0.11
0.05 0.05 0.05 0.05 0.06 0.06 0.07 0.07 0.07 0.08 0.09 0.09 0.10 0.11 0.13 0.14 0.14 0.11 0.08 0.07 0.05 0.04 0.04 0.04 0.03 0.03 0.04 0.05 0.06 0.04 0.04 0.03 0.03 0.04 0.04 0.04 0.06 0.08 0.10 0.11 0.10 0.09 0.09
0.08 0.07 0.06 0.06 0.06 0.07 0.07 0.06 0.05 0.05 0.06 0.06 0.07 0.07 0.08 0.09 0.08 0.08 0.06 0.05 0.05 0.04 0.03 0.03 0.03 0.03 0.04 0.04 0.04 0.06 0.05 0.03 0.02 0.02 0.02 0.03 0.04 0.06 0.07 0.09 0.11 0.11 0.09
0.07 0.09 0.09 0.08 0.07 0.06 0.07 0.06 0.05 0.04 0.05 0.05 0.05 0.05 0.05 0.05 0.05 0.06 0.06 0.05 0.04 0.03 0.03 0.02 0.02 0.02 0.03 0.03 0.04 0.04 0.04 0.03 0.03 0.02 0.02 0.02 0.03 0.04 0.05 0.06 0.08 0.11 0.11
0.03 0.05 0.07 0.06 0.06 0.05 0.05 0.06 0.06 0.05 0.05 0.05 0.04 0.04 0.04 0.04 0.04 0.05 0.06 0.06 0.05 0.04 0.03 0.02 0.02 0.02 0.04 0.04 0.04 0.04 0.04 0.03 0.03 0.03 0.02 0.02 0.02 0.03 0.03 0.04 0.05 0.07 0.09
0.02 0.03 0.05 0.05 0.04 0.04 0.05 0.05 0.05 0.04 0.04 0.04 0.04 0.03 0.03 0.03 0.04 0.04 0.05 0.06 0.06 0.05 0.03 0.02 0.03 0.03 0.04 0.05 0.06 0.06 0.06 0.06 0.04 0.03 0.03 0.02 0.02 0.03 0.04 0.04 0.04 0.05 0.06
0.02 0.03 0.04 0.05 0.05 0.05 0.05 0.05 0.05 0.04 0.04 0.03 0.03 0.04 0.04 0.03 0.04 0.05 0.06 0.06 0.06 0.06 0.04 0.03 0.04 0.04 0.05 0.06 0.08 0.09 0.10 0.10 0.09 0.07 0.06 0.05 0.04 0.04 0.03 0.04 0.04 0.04 0.04
0.02 0.03 0.04 0.06 0.06 0.05 0.05 0.05 0.04 0.03 0.03 0.04 0.05 0.06 0.05 0.05 0.04 0.05 0.05 0.06 0.06 0.07 0.06 0.04 0.04 0.04 0.04 0.05 0.06 0.07 0.09 0.10 0.12 0.10 0.09 0.09 0.09 0.08 0.06 0.04 0.03 0.03 0.03
0.03 0.04 0.05 0.06 0.07 0.05 0.04 0.04 0.04 0.03 0.03 0.04 0.04 0.03 0.04 0.04 0.04 0.04 0.04 0.04 0.04 0.06 0.06 0.06 0.05 0.05 0.05 0.05 0.05 0.05 0.06 0.07 0.08 0.08 0.07 0.07 0.07 0.08 0.07 0.05 0.03 0.03 0.03
0.03 0.04 0.05 0.05 0.06 0.06 0.04 0.03 0.03 0.03 0.02 0.02 0.02 0.03 0.04 0.04 0.04 0.04 0.05 0.04 0.05 0.05 0.07 0.08 0.07 0.06 0.05 0.06 0.07 0.07 0.08 0.09 0.07 0.06 0.06 0.06 0.06 0.06 0.06 0.05 0.04 0.03 0.03
0.04 0.05 0.05 0.05 0.04 0.04 0.04 0.03 0.03 0.03 0.02 0.02 0.02 0.03 0.03 0.03 0.03 0.03 0.03 0.04 0.05 0.07 0.07 0.09 0.10 0.09 0.07 0.07 0.09 0.10 0.11 0.11 0.10 0.07 0.06 0.05 0.05 0.06 0.05 0.04 0.03 0.03 0.03
0.05 0.05 0.06 0.06 0.05 0.04 0.03 0.03 0.03 0.03 0.03 0.02 0.02 0.03 0.02 0.02 0.02 0.02 0.02 0.03 0.05 0.06 0.07 0.09 0.10 0.10 0.09 0.09 0.11 0.12 0.12 0.13 0.14 0.13 0.10 0.07 0.06 0.06 0.05 0.04 0.03 0.03 0.03
0.07 0.06 0.05 0.04 0.04 0.04 0.04 0.03 0.03 0.03 0.03 0.02 0.03 0.02 0.02 0.02 0.01 0.02 0.02 0.01 0.02 0.03 0.05 0.08 0.09 0.09 0.10 0.10 0.11 0.13 0.13 0.13 0.14 0.15 0.15 0.12 0.08 0.07 0.06 0.05 0.04 0.04 0.06
0.09 0.05 0.04 0.03 0.03 0.03 0.02 0.02 0.02 0.02 0.02 0.02 0.03 0.03 0.02 0.02 0.02 0.02 0.02 0.02 0.01 0.01 0.02 0.04 0.05 0.06 0.07 0.09 0.11 0.11 0.11 0.11 0.11 0.12 0.13 0.13 0.11 0.10 0.07 0.05 0.05 0.04 0.05
0.07 0.04 0.04 0.04 0.03 0.03 0.02 0.02 0.02 0.01 0.02 0.02 0.02 0.02 0.03 0.03 0.02 0.02 0.01 0.01 0.01 0.02 0.02 0.02 0.04 0.04 0.04 0.06 0.09 0.10 0.10 0.09 0.08 0.08 0.09 0.10 0.09 0.10 0.08 0.07 0.05 0.04 0.04
0.05 0.03 0.04 0.05 0.05 0.04 0.04 0.04 0.03 0.03 0.03 0.03 0.02 0.02 0.03 0.03 0.03 0.02 0.02 0.03 0.03 0.02 0.01 0.01 0.01 0.02 0.03 0.03 0.04 0.07 0.08 0.08 0.08 0.08 0.07 0.08 0.08 0.09 0.09 0.08 0.06 0.05 0.04
0.04 0.03 0.04 0.05 0.05 0.05 0.04 0.02 0.02 0.02 0.02 0.02 0.02 0.02 0.03 0.03 0.03 0.02 0.02 0.02 0.02 0.02 0.02 0.01 0.02 0.02 0.02 0.02 0.02 0.04 0.05 0.05 0.04 0.05 0.06 0.06 0.06 0.07 0.08 0.07 0.06 0.06 0.05
MSLP
1007.97 1008.40 1008.85 1009.31 1009.76 1010.19 1010.61 1010.99 1011.33 1011.62 1011.85 1012.02 1012.15 1012.24 1012.34 1012.47 1012.67 1012.94 1013.30 1013.72 1014.18 1014.63 1015.06 1015.42 1015.71 1015.92 1016.07 1016.20 1016.32 1016.46 1016.62 1016.81 1017.04 1017.28 1017.53 1017.78 1018.01 1018.23 1018.44 1018.63 1018.79 1018.94 1019.08
1007.41 1007.77 1008.18 1008.63 1009.10 1009.57 1010.05 1010.51 1010.95 1011.33 1011.64 1011.88 1012.05 1012.17 1012.25 1012.34 1012.48 1012.68 1012.96 1013.31 1013.72 1014.16 1014.59 1014.98 1015.32 1015.59 1015.81 1015.98 1016.13 1016.27 1016.41 1016.58 1016.77 1016.97 1017.18 1017.40 1017.61 1017.81 1018.00 1018.18 1018.35 1018.51 1018.66
1006.91 1007.19 1007.55 1007.97 1008.43 1008.95 1009.48 1010.03 1010.56 1011.05 1011.47 1011.81 1012.05 1012.19 1012.27 1012.33 1012.39 1012.49 1012.67 1012.93 1013.25 1013.64 1014.05 1014.46 1014.83 1015.16 1015.43 1015.65 1015.83 1015.99 1016.14 1016.29 1016.45 1016.61 1016.77 1016.95 1017.12 1017.29 1017.47 1017.64 1017.81 1017.97 1018.13
1006.47 1006.67 1006.96 1007.32 1007.77 1008.29 1008.86 1009.48 1010.11 1010.72 1011.26 1011.70 1012.02 1012.22 1012.32 1012.35 1012.34 1012.35 1012.41 1012.56 1012.78 1013.09 1013.45 1013.84 1014.22 1014.58 1014.89 1015.17 1015.39 1015.57 1015.73 1015.88 1016.01 1016.15 1016.28 1016.41 1016.55 1016.70 1016.85 1017.01 1017.17 1017.33 1017.50
1006.06 1006.18 1006.39 1006.69 1007.09 1007.59 1008.19 1008.85 1009.56 1010.26 1010.91 1011.46 1011.87 1012.15 1012.29 1012.31 1012.27 1012.20 1012.16 1012.19 1012.31 1012.51 1012.79 1013.13 1013.49 1013.85 1014.19 1014.49 1014.75 1014.97 1015.16 1015.33 1015.47 1015.59 1015.71 1015.82 1015.94 1016.05 1016.18 1016.32 1016.47 1016.63 1016.79
1005.68 1005.73 1005.86 1006.09 1006.43 1006.89 1007.47 1008.14 1008.88 1009.65 1010.38 1011.03 1011.55 1011.91 1012.10 1012.16 1012.11 1012.00 1011.89 1011.82 1011.83 1011.93 1012.11 1012.37 1012.68 1013.01 1013.35 1013.67 1013.97 1014.23 1014.46 1014.65 1014.83 1014.98 1015.10 1015.22 1015.32 1015.42 1015.53 1015.64 1015.77 1015.91 1016.05
1005.33 1005.32 1005.39 1005.55 1005.82 1006.21 1006.74 1007.38 1008.12 1008.91 1009.70 1010.42 1011.02 1011.47 1011.74 1011.86 1011.84 1011.73 1011.59 1011.45 1011.38 1011.38 1011.47 1011.64 1011.88 1012.17 1012.48 1012.80 1013.12 1013.42 1013.70 1013.96 1014.18 1014.37 1014.53 1014.67 1014.78 1014.87 1014.95 1015.04 1015.13 1015.23 1015.33
1005.01 1004.96 1004.99 1005.09 1005.29 1005.61 1006.06 1006.65 1007.34 1008.12 1008.91 1009.67 1010.34 1010.87 1011.23 1011.42 1011.46 1011.39 1011.26 1011.11 1010.98 1010.91 1010.93 1011.01 1011.19 1011.42 1011.70 1012.01 1012.35 1012.69 1013.02 1013.33 1013.63 1013.87 1014.09 1014.25 1014.37 1014.45 1014.51 1014.55 1014.59 1014.63 1014.67
1004.70 1004.65 1004.65 1004.71 1004.85 1005.11 1005.49 1005.99 1006.63 1007.35 1008.13 1008.89 1009.59 1010.17 1010.61 1010.89 1011.02 1011.02 1010.93 1010.81 1010.68 1010.59 1010.55 1010.59 1010.70 1010.88 1011.13 1011.43 1011.77 1012.14 1012.52 1012.90 1013.25 1013.56 1013.81 1014.01 1014.13 1014.20 1014.22 1014.20 1014.17 1014.13 1014.09
1004.38 1004.35 1004.35 1004.40 1004.51 1004.71 1005.03 1005.47 1006.03 1006.69 1007.41 1008.15 1008.86 1009.47 1009.97 1010.33 1010.55 1010.63 1010.63 1010.57 1010.48 1010.41 1010.37 1010.39 1010.47 1010.63 1010.86 1011.14 1011.49 1011.87 1012.28 1012.69 1013.09 1013.44 1013.73 1013.93 1014.05 1014.09 1014.05 1013.96 1013.84 1013.69 1013.55
1004.01 1004.01 1004.03 1004.09 1004.20 1004.39 1004.67 1005.06 1005.56 1006.16 1006.83 1007.53 1008.21 1008.84 1009.37 1009.79 1010.09 1010.27 1010.36 1010.39 1010.38 1010.37 1010.37 1010.41 1010.50 1010.65 1010.87 1011.15 1011.49 1011.87 1012.29 1012.72 1013.13 1013.49 1013.77 1013.97 1014.07 1014.06 1013.96 1013.78 1013.55 1013.30 1013.04
1003.55 1003.58 1003.64 1003.73 1003.86 1004.07 1004.35 1004.72 1005.19 1005.75 1006.38 1007.03 1007.69 1008.31 1008.85 1009.31 1009.67 1009.93 1010.11 1010.24 1010.33 1010.40 1010.48 1010.57 1010.70 1010.87 1011.10 1011.37 1011.70 1012.07 1012.47 1012.88 1013.27 1013.61 1013.87 1014.04 1014.09 1014.02 1013.85 1013.59 1013.26 1012.90 1012.53
1002.97 1003.02 1003.11 1003.25 1003.43 1003.68 1004.00 1004.39 1004.87 1005.43 1006.03 1006.66 1007.28 1007.87 1008.41 1008.88 1009.28 1009.60 1009.86 1010.08 1010.27 1010.44 1010.61 1010.79 1010.97 1011.19 1011.43 1011.71 1012.01 1012.35 1012.71 1013.08 1013.41 1013.71 1013.92 1014.03 1014.03 1013.91 1013.67 1013.34 1012.93 1012.48 1012.01
1002.27 1002.33 1002.45 1002.63 1002.87 1003.19 1003.57 1004.03 1004.56 1005.14 1005.75 1006.37 1006.97 1007.54 1008.06 1008.52 1008.93 1009.28 1009.60 1009.89 1010.16 1010.43 1010.69 1010.95 1011.20 1011.46 1011.73 1012.01 1012.29 1012.59 1012.89 1013.19 1013.45 1013.67 1013.82 1013.87 1013.82 1013.65 1013.38 1013.00 1012.55 1012.05 1011.51
1001.47 1001.53 1001.67 1001.90 1002.21 1002.60 1003.08 1003.63 1004.23 1004.87 1005.51 1006.14 1006.74 1007.29 1007.78 1008.22 1008.61 1008.97 1009.31 1009.65 1009.98 1010.31 1010.65 1010.98 1011.31 1011.61 1011.91 1012.18 1012.44 1012.69 1012.92 1013.13 1013.32 1013.45 1013.53 1013.53 1013.44 1013.25 1012.96 1012.58 1012.12 1011.61 1011.06
1000.63 1000.69 1000.85 1001.13 1001.50 1001.99 1002.55 1003.20 1003.89 1004.60 1005.30 1005.97 1006.57 1007.11 1007.58 1007.99 1008.35 1008.69 1009.03 1009.37 1009.73 1010.11 1010.50 1010.88 1011.25 1011.60 1011.91 1012.18 1012.41 1012.60 1012.76 1012.89 1012.99 1013.05 1013.06 1013.01 1012.90 1012.71 1012.45 1012.10 1011.68 1011.20 1010.68
999.82 999.90 1000.10 1000.42 1000.87 1001.43 1002.09 1002.83 1003.61 1004.39 1005.15 1005.86 1006.48 1007.02 1007.47 1007.85 1008.18 1008.49 1008.79 1009.12 1009.47 1009.86 1010.27 1010.68 1011.08 1011.44 1011.75 1012.01 1012.21 1012.35 1012.45 1012.50 1012.52 1012.51 1012.47 1012.39 1012.27 1012.11 1011.89 1011.61 1011.26 1010.85 1010.39
999.09 999.24 999.50 999.89 1000.40 1001.03 1001.77 1002.58 1003.43 1004.29 1005.10 1005.84 1006.49 1007.03 1007.48 1007.83 1008.13 1008.39 1008.66 1008.95 1009.28 1009.65 1010.05 1010.46 1010.86 1011.22 1011.53 1011.76 1011.93 1012.02 1012.05 1012.04 1011.99 1011.92 1011.84 1011.74 1011.63 1011.51 1011.35 1011.14 1010.89 1010.57 1010.20
998.50 998.76 999.13 999.60 1000.19 1000.88 1001.67 1002.53 1003.43 1004.32 1005.17 1005.95 1006.61 1007.17 1007.61 1007.95 1008.22 1008.45 1008.68 1008.93 1009.22 1009.55 1009.92 1010.30 1010.68 1011.02 1011.31 1011.52 1011.65 1011.70 1011.68 1011.61 1011.50 1011.38 1011.26 1011.15 1011.05 1010.95 1010.84 1010.72 1010.55 1010.34 1010.05
998.09 998.51 999.01 999.59 1000.26 1001.01 1001.83 1002.71 1003.62 1004.53 1005.39 1006.17 1006.85 1007.42 1007.86 1008.21 1008.47 1008.67 1008.87 1009.08 1009.33 1009.61 1009.93 1010.28 1010.62 1010.93 1011.18 1011.36 1011.45 1011.46 1011.40 1011.27 1011.12 1010.95 1010.79 1010.66 1010.55 1010.47 1010.40 1010.33 1010.24 1010.11 1009.91
997.87 998.50 999.16 999.86 1000.60 1001.39 1002.23 1003.10 1004.00 1004.89 1005.73 1006.51 1007.20 1007.77 1008.23 1008.59 1008.85 1009.05 1009.23 1009.41 1009.61 1009.85 1010.12 1010.41 1010.70 1010.97 1011.18 1011.32 1011.38 1011.35 1011.25 1011.08 1010.88 1010.67 1010.47 1010.31 1010.18 1010.09 1010.04 1009.99 1009.94 1009.86 1009.72
997.89 998.73 999.55 1000.37 1001.18 1002.00 1002.83 1003.67 1004.53 1005.37 1006.19 1006.95 1007.62 1008.21 1008.68 1009.05 1009.34 1009.55 1009.72 1009.88 1010.05 1010.24 1010.46 1010.69 1010.93 1011.14 1011.31 1011.41 1011.43 1011.37 1011.23 1011.03 1010.79 1010.54 1010.30 1010.09 1009.93 1009.81 1009.73 1009.68 1009.63 1009.57 1009.46
998.17 999.19 1000.16 1001.08 1001.94 1002.77 1003.57 1004.37 1005.16 1005.95 1006.71 1007.44 1008.10 1008.69 1009.18 1009.58 1009.89 1010.12 1010.30 1010.45 1010.59 1010.74 1010.90 1011.07 1011.25 1011.40 1011.51 1011.57 1011.56 1011.47 1011.30 1011.07 1010.80 1010.52 1010.23 1009.99 1009.77 1009.61 1009.49 1009.40 1009.33 1009.24 1009.13
998.76 999.91 1000.98 1001.95 1002.83 1003.65 1004.41 1005.15 1005.86 1006.58 1007.29 1007.97 1008.61 1009.20 1009.71 1010.13 1010.46 1010.72 1010.90 1011.05 1011.16 1011.27 1011.38 1011.49 1011.60 1011.69 1011.75 1011.76 1011.71 1011.59 1011.41 1011.16 1010.87 1010.57 1010.25 1009.96 1009.71 1009.49 1009.31 1009.17 1009.04 1008.92 1008.77
999.68 1000.89 1001.99 1002.97 1003.83 1004.61 1005.31 1005.97 1006.61 1007.25 1007.89 1008.53 1009.15 1009.73 1010.24 1010.68 1011.03 1011.30 1011.49 1011.63 1011.72 1011.79 1011.84 1011.89 1011.93 1011.95 1011.96 1011.93 1011.84 1011.70 1011.51 1011.26 1010.96 1010.65 1010.32 1010.00 1009.71 1009.45 1009.21 1009.01 1008.82 1008.64 1008.45
1000.94 1002.11 1003.17 1004.11 1004.92 1005.63 1006.25 1006.83 1007.40 1007.97 1008.55 1009.13 1009.72 1010.27 1010.78 1011.23 1011.59 1011.86 1012.05 1012.17 1012.23 1012.25 1012.25 1012.24 1012.21 1012.18 1012.13 1012.05 1011.94 1011.78 1011.58 1011.34 1011.05 1010.74 1010.42 1010.09 1009.78 1009.48 1009.21 1008.95 1008.70 1008.46 1008.23
Thickness
5721 5719 5715 5714 5713 5712 5710 5709 5708 5707 5706 5705 5705 5705 5705 5705 5705 5705 5705 5703 5701 5700 5700 5700 5701 5701 5701 5702 5702 5702 5702 5701 5702 5701 5700 5699 5698 5698 5697 5697 5697 5697 5697
5715 5713 5713 5710 5709 5708 5708 5705 5704 5703 5702 5701 5701 5701 5701 5701 5700 5700 5701 5701 5699 5698 5697 5697 5698 5698 5699 5700 5700 5700 5700 5699 5699 5699 5698 5697 5697 5696 5695 5695 5695 5694 5694
5709 5708 5706 5705 5705 5704 5702 5701 5700 5699 5698 5698 5697 5698 5698 5698 5698 5697 5697 5698 5698 5697 5695 5695 5695 5695 5696 5697 5697 5697 5697 5697 5697 5696 5696 5695 5695 5695 5694 5694 5693 5693 5693
5704 5702 5701 5701 5699 5699 5699 5697 5696 5695 5694 5693 5694 5694 5695 5694 5694 5694 5694 5694 5694 5695 5694 5693 5692 5693 5693 5694 5694 5695 5695 5694 5694 5694 5693 5693 5693 5693 5692 5692 5692 5691 5691
5700 5698 5697 5696 5695 5695 5694 5693 5692 5690 5689 5689 5690 5690 5691 5691 5691 5691 5691 5691 5690 5690 5692 5692 5691 5691 5691 5691 5691 5691 5691 5691 5691 5691 5691 5690 5690 5690 5690 5690 5690 5690 5689
5694 5693 5692 5691 5690 5689 5687 5686 5684 5684 5684 5684 5686 5687 5687 5689 5689 5689 5688 5689 5687 5688 5689 5690 5689 5690 5689 5688 5688 5687 5687 5687 5688 5688 5688 5688 5687 5688 5688 5687 5687 5687 5687
5689 5687 5687 5686 5684 5683 5681 5681 5679 5679 5679 5680 5679 5679 5683 5685 5685 5685 5685 5685 5686 5686 5687 5686 5687 5687 5687 5686 5685 5685 5684 5684 5684 5685 5685 5684 5685 5685 5685 5685 5685 5685 5685
5683 5682 5680 5680 5679 5677 5675 5674 5673 5673 5675 5675 5672 5671 5672 5676 5678 5682 5681 5681 5682 5684 5684 5685 5684 5683 5683 5684 5684 5682 5681 5680 5681 5681 5681 5681 5681 5681 5681 5682 5682 5682 5683
5678 5676 5675 5674 5673 5673 5671 5669 5668 5667 5668 5669 5669 5666 5664 5666 5671 5675 5676 5676 5676 5677 5680 5681 5681 5681 5680 5679 5680 5679 5677 5677 5677 5677 5678 5678 5678 5678 5678 5678 5679 5679 5679
5673 5671 5669 5668 5668 5667 5666 5665 5665 5664 5662 5663 5663 5662 5661 5661 5658 5662 5668 5670 5671 5671 5673 5675 5677 5677 5676 5675 5675 5674 5673 5672 5672 5672 5673 5673 5673 5674 5674 5675 5675 5676 5676
5667 5666 5664 5663 5662 5661 5661 5659 5658 5658 5658 5658 5657 5657 5655 5655 5654 5652 5655 5660 5664 5666 5667 5668 5669 5671 5671 5671 5670 5670 5668 5668 5667 5667 5668 5668 5669 5670 5670 5670 5671 5672 5673
5663 5661 5660 5659 5658 5657 5656 5654 5653 5653 5652 5651 5651 5651 5650 5649 5650 5649 5649 5652 5655 5659 5661 5663 5663 5664 5665 5665 5666 5665 5663 5662 5662 5662 5663 5663 5664 5664 5665 5665 5666 5668 5669
5658 5655 5655 5654 5653 5651 5650 5649 5648 5648 5647 5645 5645 5645 5645 5645 5646 5645 5644 5646 5648 5653 5655 5657 5658 5658 5658 5658 5658 5657 5657 5657 5657 5657 5657 5658 5659 5659 5660 5660 5661 5663 5664
5653 5651 5650 5650 5649 5647 5646 5644 5644 5643 5642 5641 5642 5640 5640 5640 5641 5641 5640 5639 5641 5646 5648 5650 5653 5653 5652 5651 5651 5650 5651 5651 5651 5651 5652 5652 5653 5654 5654 5655 5656 5657 5658
5648 5647 5647 5646 5645 5644 5642 5640 5639 5638 5638 5638 5637 5636 5635 5636 5636 5637 5636 5636 5635 5636 5640 5642 5644 5647 5646 5645 5644 5644 5646 5646 5646 5646 5646 5647 5648 5649 5649 5650 5650 5651 5652
5644 5644 5643 5642 5641 5640 5639 5637 5636 5635 5634 5633 5631 5629 5629 5630 5631 5631 5631 5632 5631 5630 5632 5635 5636 5639 5638 5639 5638 5638 5640 5640 5640 5641 5641 5642 5643 5643 5644 5644 5645 5646 5647
5642 5640 5640 5638 5637 5637 5636 5634 5632 5631 5629 5628 5626 5625 5624 5624 5624 5624 5625 5625 5625 5624 5623 5627 5629 5631 5630 5630 5632 5633 5635 5635 5637 5637 5636 5636 5637 5637 5638 5639 5640 5641 5642
5638 5638 5637 5635 5634 5633 5632 5630 5628 5626 5625 5623 5621 5619 5619 5619 5617 5617 5618 5619 5619 5618 5617 5617 5620 5622 5623 5624 5625 5626 5630 5632 5632 5632 5631 5631 5631 5631 5632 5633 5634 5634 5635
5634 5634 5633 5632 5630 5629 5628 5627 5625 5623 5621 5619 5618 5615 5614 5613 5612 5612 5612 5613 5612 5612 5611 5611 5613 5614 5617 5619 5619 5621 5623 5623 5626 5627 5625 5625 5625 5626 5626 5627 5627 5628 5628
5631 5630 5629 5628 5627 5626 5625 5624 5622 5619 5617 5615 5613 5611 5610 5608 5607 5606 5606 5606 5606 5605 5605 5606 5607 5608 5609 5612 5612 5613 5615 5617 5618 5621 5620 5620 5620 5619 5620 5621 5622 5622 5622
5627 5627 5626 5625 5623 5622 5621 5618 5616 5615 5612 5611 5609 5607 5606 5603 5600 5598 5599 5599 5599 5599 5600 5600 5601 5601 5602 5602 5603 5605 5606 5608 5610 5611 5612 5614 5615 5616 5616 5616 5615 5615 5615
5623 5622 5621 5621 5619 5618 5613 5610 5609 5610 5608 5607 5605 5603 5602 5600 5596 5593 5591 5590 5590 5592 5593 5593 5594 5594 5593 5595 5595 5597 5598 5599 5599 5603 5603 5605 5608 5609 5610 5611 5610 5609 5608
5618 5617 5617 5616 5614 5612 5608 5606 5604 5605 5606 5604 5602 5600 5599 5598 5593 5591 5589 5586 5585 5584 5583 5585 5587 5587 5587 5588 5587 5589 5590 5591 5591 5593 5594 5596 5599 5600 5602 5605 5603 5602 5600
5615 5614 5613 5612 5610 5608 5604 5602 5601 5602 5603 5602 5600 5597 5594 5592 5589 5585 5585 5585 5584 5583 5582 5581 5581 5581 5581 5581 5581 5582 5583 5584 5585 5587 5588 5588 5592 5593 5596 5596 5594 5593 5593
5612 5611 5610 5609 5607 5605 5600 5598 5596 5600 5601 5599 5597 5595 5591 5588 5582 5578 5580 5580 5580 5579 5578 5576 5575 5574 5573 5573 5573 5576 5577 5578 5579 5582 5583 5583 5585 5586 5586 5587 5587 5585 5585
5610 5610 5609 5607 5606 5604 5599 5596 5593 5600 5599 5597 5595 5593 5587 5583 5577 5574 5576 5576 5576 5575 5575 5575 5573 5572 5573 5572 5570 5571 5573 5573 5573 5574 5577 5576 5577 5578 5578 5581 5582 5580 5579